Location: Castelbiague
(43.0361°N, 0.9246°E)
Time: 09:21:25
(UTC+00:00)

Cosmos 968 Rocket - Visible Passes

Search period start: 28 October 2021 00:00
Search period end: 07 November 2021 00:00
Orbit: 740 x 771 km, 74.0° (Epoch: 27 October)

Date Brightness Start Highest point End Pass type
(mag) Time Alt. Az. Time Alt. Az. Time Alt. Az.
02 Nov 5.9 19:11:37 10° N 19:11:47 11° N 19:11:47 11° N visible
03 Nov 6.2 20:11:50 10° NNW 20:11:55 10° NNW 20:11:55 10° NNW visible
04 Nov 5.7 19:31:11 10° N 19:32:05 15° N 19:32:05 15° N visible
05 Nov 5.3 18:50:48 10° N 18:52:20 17° NNE 18:52:20 17° NNE visible
05 Nov 6.4 20:32:20 10° NW 20:32:20 10° NW 20:32:20 10° NW visible
06 Nov 5.2 18:10:49 10° NNE 18:12:38 15° NE 18:12:38 15° NE visible
06 Nov 5.6 19:51:18 10° NNW 19:52:40 18° NNW 19:52:40 18° NNW visible
